Terminal Aerodrome Forecast
Issued by NWS King Salmon, AK

Home | Current Version | Previous Version | Text Only | Print | Product List | Glossary On
Versions: 1 2 3 4 5 6 7 8 9 10 11 12 13 14 15 16 17 18 19 20 21 22 23 24 25 26
000
FTAK31 PANC 221739
TAFAKN
TAF
PAKN 221739Z 2218/2318 36004KT P6SM -SHSN OVC025
      TEMPO 2218/2222 OVC015
     FM230800 35003KT P6SM SCT025 OVC040
     FM231300 36006KT P6SM BKN060=

USA.gov is the U.S. government's official web portal to all federal, state and local government web resources and services.